Location: Casilda
(33.0440°S, 61.1680°W)
Time: 08:57:55
(UTC-03:00)

ISS - Pass Details

Date: 16 October 2021
Orbit: 417 x 423 km, 51.6° (Epoch: 18 October)

Event Time Altitude Azimuth Distance (km) Brightness Sun altitude
Exits shadow 04:46:09 12° 22° (NNE) 1,396 -1.2 -20.0°
Drops below altitude 10° 04:46:27 10° 24° (NNE) 1,510 -1.0 -19.9°
Sets 04:48:36 0° 31° (NNE) 2,366 0.1 -19.5°
